Home   Weather   Murmansk   Past weeks

Flag for Russia Past Weather in Murmansk, Russia — Yesterday and Last 2 Weeks

Now
52 °F

Partly sunny.


Feels Like: 51 °F
Forecast: 44 / 59 °F
Wind: 5 mph from Northeast

Location: Kirkenes Lufthavn

Current Time: Jul 23, 2017 at 3:51:43 pm

Latest Report: Jul 23, 2017 at 3:20 pm


Visibility: N/A

Pressure: 30.30 "Hg

Humidity: 82%

Dew Point: 46 °F

Location of MurmanskLocation

Past Weather in Murmansk — Graph

°F

Murmansk Temperature Yesterday

Maximum temperature yesterday: 54 °F (at 11:20 am)
Minimum temperature yesterday: 48 °F (at 12:20 am)
Average temperature yesterday: 51 °F

High & Low Weather Summary for the Past Weeks

 TemperatureHumidityPressure
High75 °F (Jul 17, 3:50 pm)100% (Jul 13, 1:50 am)30.33 "Hg (Jul 13, 1:50 am)
Low46 °F (Jul 14, 5:50 pm)27% (Jul 10, 3:50 pm)29.36 "Hg (Jul 13, 10:20 am)
Average58 °F74%29.84 "Hg
* Reported Jul 8 2:20 pm — Jul 23 2:20 pm, Murmansk. Weather by CustomWeather, © 2017

Note: Actual official high and low records may vary slightly from our data, if they occured in-between our weather recording intervals... More about our weather records

Advertising

Murmansk Weather History for the Previous 24 Hours

Scroll right to see more
 ConditionsComfort  
Time TempWeatherWind HumidityBarometerVisibility
2:20 pm
Sun, Jul 23
52 °FPartly sunny.5 mph88%30.30 "HgN/A
1:50 pm50 °FFog.5 mph88%30.30 "HgN/A
1:20 pm50 °FFog.5 mph88%30.33 "HgN/A
12:50 pm50 °FFog.3 mph94%30.33 "HgN/A
12:20 pm50 °FFog.6 mph94%30.33 "HgN/A
11:50 am50 °FFog.7 mph88%30.33 "HgN/A
11:20 am50 °FPartly sunny.7 mph88%30.33 "HgN/A
10:50 am50 °FPartly sunny.7 mph88%30.33 "HgN/A
10:20 am50 °FLow clouds.6 mph88%30.33 "HgN/A
9:20 am50 °FLow clouds.3 mph88%30.33 "HgN/A
8:20 am48 °FLow clouds.6 mph94%30.33 "HgN/A
7:50 am48 °FLow clouds.7 mph94%30.33 "HgN/A
7:20 am48 °FLow clouds.6 mph94%30.33 "HgN/A
6:50 am50 °FLow clouds.6 mph88%30.33 "HgN/A
6:20 am50 °FLow clouds.5 mph88%30.33 "HgN/A
5:20 am50 °FLow clouds.6 mph88%30.33 "HgN/A
4:50 am50 °FLow clouds.5 mph88%30.33 "HgN/A
4:20 am50 °FLow clouds.3 mph88%30.33 "HgN/A
3:50 am50 °FLow clouds.5 mph88%30.33 "HgN/A
3:20 am50 °FLow clouds.3 mph88%30.33 "HgN/A
2:50 am50 °FLow clouds.6 mph94%30.33 "HgN/A
2:20 am50 °FLow clouds.7 mph94%30.33 "HgN/A
1:50 am50 °FMostly cloudy.7 mph94%30.33 "HgN/A
1:20 am50 °FLow clouds.7 mph94%30.33 "HgN/A
12:50 am50 °FMostly cloudy.7 mph94%30.33 "HgN/A
12:20 am52 °FMostly cloudy.7 mph88%30.33 "HgN/A
11:50 pm
Sat, Jul 22
52 °FMostly cloudy.7 mph88%30.33 "HgN/A
11:20 pm52 °FMore clouds than sun.8 mph88%30.33 "HgN/A
10:50 pm52 °FBroken clouds.8 mph82%30.33 "HgN/A
10:20 pm52 °FBroken clouds.7 mph88%30.33 "HgN/A
9:50 pm52 °FBroken clouds.8 mph88%30.33 "HgN/A
9:20 pm52 °FBroken clouds.9 mph88%30.33 "HgN/A
8:50 pm52 °FBroken clouds.8 mph88%30.33 "HgN/A
8:20 pm52 °FBroken clouds.8 mph88%30.30 "HgN/A
7:50 pm54 °FPartly sunny.9 mph82%30.30 "HgN/A
7:20 pm54 °FPartly sunny.9 mph82%30.30 "HgN/A
6:50 pm54 °FPartly sunny.8 mph82%30.30 "HgN/A
6:20 pm54 °FPartly sunny.8 mph82%30.30 "HgN/A
5:50 pm54 °FOvercast.8 mph82%30.30 "HgN/A
5:20 pm54 °FOvercast.9 mph77%30.30 "HgN/A
4:50 pm54 °FPartly sunny.7 mph77%30.30 "HgN/A
4:20 pm54 °FBroken clouds.8 mph77%30.30 "HgN/A
3:50 pm54 °FPartly sunny.7 mph77%30.30 "HgN/A
3:20 pm54 °FBroken clouds.9 mph77%30.30 "HgN/A
Weather by CustomWeather, © 2017

See weather overviewHow to use our weather pages